OneWeb SL0590

operational
NORAD ID: 54656 Int'l Des: 2022-166 Owner: ONEWEBN Country: UK Constellation: oneweb
LEOCIRCULARPOLARONEWEB_TYPE

Über OneWeb SL0590

Beschreibung wird geladen...

Live-Position

3D-Globus wird geladen...

Nächste Überflüge

Höhenverlauf

Altitude vs Time

uPlot chart will show altitude changes over time

Zweizeiliger Elementsatz

1 54656U 22166Q 25299.01692163 .00000060 00000-0 11305-3 0 9997
2 54656 87.9165 290.6874 0002103 76.9056 283.2313 13.21823243140599
Epoch: 26. Okt. 2025 • Age: 10 hours

Aktueller Status

Höhe 1188.6 km
Geschwindigkeit 7.27 km/s
Subsatellitenpunkt 69.47°N, 80.67°W
Startdatum 8. Dez. 2022
Alter 2.8 years
Typ internet

Technische Details

Klassifizierung Payload
Masse 148.00 kg
Trockenmasse 140.00 kg
Gesamtmasse 148.00 kg
Länge 1.30 m
Durchmesser 1.00 m
Spannweite 5.00 m
Form Trapezoid+2 pan
Hersteller ONEWUS
Bus-Typ ARROW
Phasenstatus In Orbit
Besitzer/Staat ONEWEBN/UK

Große Konstellationen

Loading constellations...